{"data":{"norad_id":69623,"epoch":"2026-09-19T18:27:14.451264Z","epoch_age_seconds":92211,"freshness":"FRESH","line1":"1 69623U 26140AH  26262.76891726  .00009820  00000+0  27633-3 0  9995","line2":"2 69623  51.8793 301.4105 0008174 186.5114 173.5767 15.37097804 15782","mean_motion":15.37097804,"eccentricity":0.0008174,"inclination_deg":51.8793,"raan_deg":301.4105,"arg_perigee_deg":186.5114,"mean_anomaly_deg":173.5767,"bstar":0.00027633,"rev_number":1578,"period_min":93.683043216422,"perigee_km":449.11137017449,"apogee_km":460.28168642655,"semimajor_km":6832.8335283005,"source":"CELESTRAK","updated_at":"2026-09-20T09:00:25.030903Z"}}